United States

Ashburn, VA Weather Archive

Below you will find the last 24 hours of weather readings for Ashburn VA

Ashburn VA Today's Weather Data

Observed at: Ashburn, VA

Hour Observerd Temp Pressure Visibility Humidity Dew Point Wind
09:00 Overcast 32°F (0°C) 98.21 kPa 10 miles 80% 26.6°F (-3°C) 8 mph W 263.75°17 mph
08:00 Overcast 32°F (0°C) 98.21 kPa 10 miles 80% 26.6°F (-3°C) 8 mph W 263.75°17 mph
07:00 Overcast 34°F (1.1°C) 98.21 kPa 10 miles 75% 26.6°F (-3°C) 10 mph NW 308.75°20 mph
06:00 Overcast 32°F (0°C) 98.21 kPa 10 miles 80% 26.6°F (-3°C) 9 mph NW 308.75°20 mph
05:00 Overcast 32°F (0°C) 98.21 kPa 10 miles 80% 26.6°F (-3°C) 9 mph NW 308.75°23 mph
04:00 Overcast 32°F (0°C) 98.21 kPa 10 miles 80% 26.6°F (-3°C) 5 mph NW 308.75°20 mph
03:00 Overcast 32°F (0°C) 98.21 kPa 10 miles 80% 26.6°F (-3°C) 16 mph NW 308.75°28 mph
02:00 Overcast 32°F (0°C) 98.21 kPa 10 miles 80% 26.6°F (-3°C) 12 mph NW 308.75°19 mph
01:00 Overcast 32°F (0°C) 98.21 kPa 10 miles 80% 26.6°F (-3°C) 12 mph NW 308.75°19 mph
00:00 Overcast and Breezy 32°F (0°C) 98.21 kPa 10 miles 69% 23°F (-5°C) 20 mph NW 308.75°35 mph
23:00 Overcast and Breezy 32°F (0°C) 98.21 kPa 10 miles 69% 23°F (-5°C) 20 mph NW 308.75°35 mph
22:00 Partly Cloudy 32°F (0°C) 98.21 kPa 10 miles 69% 23°F (-5°C) 18 mph NW 308.75°29 mph
21:00 Partly Cloudy 32°F (0°C) 98.21 kPa 10 miles 69% 23°F (-5°C) 18 mph NW 308.75°29 mph
20:00 Fair and Breezy 32°F (0°C) 98.21 kPa 10 miles 69% 23°F (-5°C) 25 mph NW 308.75°43 mph
19:00 Fair and Breezy 32°F (0°C) 98.21 kPa 10 miles 69% 23°F (-5°C) 21 mph NW 308.75°32 mph
18:00 Overcast and Breezy 34°F (1.1°C) 98.21 kPa 10 miles 65% 23°F (-5°C) 21 mph W 263.75°44 mph
17:00 Overcast and Breezy 34°F (1.1°C) 98.21 kPa 10 miles 65% 23°F (-5°C) 21 mph W 263.75°44 mph
16:00 Overcast and Breezy 34°F (1.1°C) 98.21 kPa 10 miles 65% 23°F (-5°C) 21 mph W 263.75°44 mph
15:00 Overcast and Breezy 34°F (1.1°C) 98.21 kPa 10 miles 65% 23°F (-5°C) 21 mph W 263.75°44 mph
14:00 Partly Cloudy and Breezy 34°F (1.1°C) 98.21 kPa 10 miles 65% 23°F (-5°C) 20 mph NW 308.75°34 mph
13:00 Mostly Cloudy and Breezy 36°F (2.2°C) 98.21 kPa 10 miles 70% 26.6°F (-3°C) 20 mph W 263.75°31 mph
12:00 Overcast 36°F (2.2°C) 98.21 kPa 10 miles 75% 28.4°F (-2°C) 19 mph W 263.75°35 mph
11:00 Partly Cloudy 36°F (2.2°C) 98.21 kPa 10 miles 75% 28.4°F (-2°C) 19 mph W 263.75°35 mph
10:00 Partly Cloudy 36°F (2.2°C) 98.21 kPa 10 miles 75% 28.4°F (-2°C) 19 mph W 263.75°29 mph


Home | Earthquakes | About Us | Contact Us | Privacy

Copyright Friendly Forecast 2012 - 2022